This is the latest recevied weather packets stored in our database for station/object K2CAT. If no packets are shown the sender has not sent any weather packets the latest 10 day(s).
| Time | Temp. | Humidity | Pressure | Rain* | Wind** | Luminosity | Snow |
|---|---|---|---|---|---|---|---|
| 1777082336 | 10.56° C | 55% | 1013.3 hPa | 0 mm | - | 0 W/m² | - |
| 1777082031 | 10.56° C | 55% | 1013.1 hPa | 0 mm | - | 0 W/m² | - |
| 1777081727 | 10° C | 54% | 1012.9 hPa | 0 mm | - | 0 W/m² | - |
| 1777081422 | 10° C | 52% | 1013 hPa | 0 mm | - | 0 W/m² | - |
| 1777081119 | 10° C | 53% | 1012.7 hPa | 0 mm | - | 0 W/m² | - |
| 1777080818 | 10° C | 56% | 1012.5 hPa | 0 mm | - | 0 W/m² | - |
| 1777080513 | 10° C | 54% | 1012.6 hPa | 0 mm | - | 0 W/m² | - |
| 1777080213 | 10° C | 53% | 1012.4 hPa | 0 mm | - | 0 W/m² | - |
| 1777079908 | 10° C | 52% | 1012.4 hPa | 0 mm | - | 0 W/m² | - |
| 1777079601 | 10° C | 53% | 1012.3 hPa | 0 mm | - | 0 W/m² | - |
| 1777079298 | 10° C | 52% | 1012 hPa | 0 mm | - | 0 W/m² | - |
| 1777078994 | 10° C | 53% | 1012.1 hPa | 0 mm | - | 0 W/m² | - |
| 1777078690 | 10° C | 53% | 1011.9 hPa | 0 mm | - | 0 W/m² | - |
| 1777078388 | 10.56° C | 51% | 1012.2 hPa | 0 mm | - | 0 W/m² | - |
| 1777078087 | 10.56° C | 52% | 1011.8 hPa | 0 mm | - | 0 W/m² | - |
| 1777077782 | 10.56° C | 51% | 1011.8 hPa | 0 mm | - | 0 W/m² | - |
| 1777077480 | 10.56° C | 51% | 1011.8 hPa | 0 mm | - | 0 W/m² | - |
| 1777077179 | 11.11° C | 50% | 1011.5 hPa | 0 mm | - | 0 W/m² | - |
| 1777076878 | 11.11° C | 50% | 1011.3 hPa | 0 mm | - | 0 W/m² | - |
| 1777076575 | 11.11° C | 46% | 1011.4 hPa | 0 mm | - | 0 W/m² | - |
| 1777076270 | 11.67° C | 45% | 1011.1 hPa | 0 mm | - | 0 W/m² | - |
| 1777075967 | 11.67° C | 46% | 1011.3 hPa | 0 mm | - | 0 W/m² | - |
| 1777075662 | 12.22° C | 42% | 1011.1 hPa | 0 mm | - | 0 W/m² | - |
| 1777075358 | 12.22° C | 41% | 1011 hPa | 0 mm | - | 0 W/m² | - |
| 1777075055 | 12.22° C | 39% | 1010.7 hPa | 0 mm | - | 1 W/m² | - |
* Rain latest hour (hover to see other rain measurements)
** Current wind speed in m/s (hover to see current wind gust speed)